This is the latest recevied weather packets stored in our database for station/object KO4LCK. If no packets are shown the sender has not sent any weather packets the latest 10 day(s).
| Time | Temp. | Humidity | Pressure | Rain* | Wind** | Luminosity | Snow |
|---|---|---|---|---|---|---|---|
| 1777966638 | 11.11° C | 85% | 1014.9 hPa | 0 mm | - | 0 W/m² | - |
| 1777966335 | 11.11° C | 84% | 1014.8 hPa | 0 mm | - | 0 W/m² | - |
| 1777966031 | 11.11° C | 85% | 1014.6 hPa | 0 mm | - | 0 W/m² | - |
| 1777965728 | 11.11° C | 84% | 1014.8 hPa | 0 mm | - | 0 W/m² | - |
| 1777965423 | 11.11° C | 82% | 1014.8 hPa | 0 mm | - | 0 W/m² | - |
| 1777965121 | 11.67° C | 82% | 1014.7 hPa | 0 mm | - | 0 W/m² | - |
| 1777964818 | 11.67° C | 83% | 1015 hPa | 0 mm | - | 0 W/m² | - |
| 1777964514 | 11.67° C | 83% | 1014.9 hPa | 0 mm | - | 0 W/m² | - |
| 1777964210 | 11.67° C | 80% | 1015.1 hPa | 0 mm | - | 0 W/m² | - |
| 1777963907 | 12.22° C | 80% | 1015 hPa | 0 mm | - | 0 W/m² | - |
| 1777963604 | 12.22° C | 80% | 1015 hPa | 0 mm | - | 0 W/m² | - |
| 1777963302 | 12.22° C | 77% | 1015.3 hPa | 0 mm | - | 0 W/m² | - |
| 1777963000 | 12.22° C | 77% | 1015 hPa | 0 mm | - | 0 W/m² | - |
| 1777962696 | 12.22° C | 78% | 1015.1 hPa | 0 mm | - | 0 W/m² | - |
| 1777962392 | 12.22° C | 79% | 1015 hPa | 0 mm | - | 0 W/m² | - |
| 1777962089 | 12.22° C | 79% | 1015.1 hPa | 0 mm | - | 0 W/m² | - |
| 1777961786 | 12.22° C | 79% | 1015.1 hPa | 0 mm | - | 0 W/m² | - |
| 1777961485 | 12.22° C | 76% | 1015.2 hPa | 0 mm | - | 0 W/m² | - |
| 1777961182 | 12.78° C | 76% | 1015.1 hPa | 0 mm | - | 0 W/m² | - |
| 1777960878 | 12.78° C | 78% | 1015 hPa | 0 mm | - | 0 W/m² | - |
| 1777960574 | 12.78° C | 78% | 1015.1 hPa | 0 mm | - | 0 W/m² | - |
| 1777960270 | 12.78° C | 76% | 1015.2 hPa | 0 mm | - | 0 W/m² | - |
| 1777959968 | 12.78° C | 76% | 1015.3 hPa | 0 mm | - | 0 W/m² | - |
| 1777959666 | 12.78° C | 74% | 1015.4 hPa | 0 mm | - | 0 W/m² | - |
| 1777959363 | 12.78° C | 73% | 1015.1 hPa | 0 mm | - | 0 W/m² | - |
* Rain latest hour (hover to see other rain measurements)
** Current wind speed in m/s (hover to see current wind gust speed)